TimeCST,TemperatureF,Dew PointF,Humidity,Sea Level PressureIn,VisibilityMPH,Wind Direction,Wind SpeedMPH,Gust SpeedMPH,PrecipitationIn,Events,Conditions,WindDirDegrees,DateUTC
12:53 AM,37.9,35.1,89,30.31,10.0,Calm,Calm,-,N/A,,Clear,0,2012-12-05 06:53:00
1:53 AM,37.9,34.0,86,30.31,10.0,Calm,Calm,-,N/A,,Clear,0,2012-12-05 07:53:00
2:53 AM,35.1,33.1,92,30.30,10.0,Calm,Calm,-,N/A,,Clear,0,2012-12-05 08:53:00
3:53 AM,36.0,33.1,89,30.31,10.0,Calm,Calm,-,N/A,,Clear,0,2012-12-05 09:53:00
4:53 AM,33.1,32.0,96,30.33,10.0,Calm,Calm,-,N/A,,Clear,0,2012-12-05 10:53:00
5:53 AM,37.0,32.0,82,30.32,10.0,Calm,Calm,-,N/A,,Clear,0,2012-12-05 11:53:00
6:53 AM,36.0,30.9,82,30.33,10.0,Calm,Calm,-,N/A,,Clear,0,2012-12-05 12:53:00
8:53 AM,39.9,36.0,86,30.35,10.0,Calm,Calm,-,N/A,,Clear,0,2012-12-05 14:53:00
9:53 AM,48.9,34.0,56,30.33,10.0,NE,4.6,-,N/A,,Clear,50,2012-12-05 15:53:00
10:53 AM,54.0,35.1,49,30.32,10.0,East,5.8,-,N/A,,Clear,90,2012-12-05 16:53:00
11:53 AM,57.0,33.1,40,30.28,10.0,East,9.2,-,N/A,,Clear,100,2012-12-05 17:53:00
12:53 PM,57.9,30.9,36,30.26,10.0,ESE,8.1,-,N/A,,Clear,120,2012-12-05 18:53:00
1:53 PM,59.0,30.0,33,30.22,10.0,SE,10.4,-,N/A,,Clear,140,2012-12-05 19:53:00
2:53 PM,57.9,28.9,33,30.20,10.0,ESE,8.1,-,N/A,,Clear,110,2012-12-05 20:53:00
3:53 PM,57.0,30.9,37,30.20,10.0,ESE,5.8,-,N/A,,Clear,120,2012-12-05 21:53:00
4:53 PM,54.0,30.0,40,30.19,10.0,ESE,3.5,-,N/A,,Clear,120,2012-12-05 22:53:00
5:53 PM,51.1,30.0,44,30.19,10.0,East,3.5,-,N/A,,Clear,100,2012-12-05 23:53:00
6:53 PM,50.0,28.0,43,30.19,10.0,ESE,4.6,-,N/A,,Clear,110,2012-12-06 00:53:00
7:53 PM,48.9,28.9,46,30.17,10.0,East,6.9,-,N/A,,Clear,100,2012-12-06 01:53:00
8:53 PM,48.0,30.0,50,30.15,10.0,ESE,6.9,-,N/A,,Clear,110,2012-12-06 02:53:00
9:53 PM,48.0,33.1,56,30.12,10.0,ESE,6.9,-,N/A,,Clear,110,2012-12-06 03:53:00
10:53 PM,46.9,34.0,61,30.11,10.0,East,4.6,-,N/A,,Clear,100,2012-12-06 04:53:00
11:53 PM,44.1,34.0,68,30.10,10.0,ESE,4.6,-,N/A,,Mostly Cloudy,110,2012-12-06 05:53:00